Location: Observatorio Las Palmas
(29.0667°N, 110.9333°W)
Time: 06:25:46
(UTC-07:00)

Daily predictions for brighter satellites

Satellite Brightness Start Highest point End
(mag) Time Altitude Azimuth Time Altitude Azimuth Time Altitude Azimuth
deb Centaur AC-2 4.3 19:35:08 10° W 19:39:41 88° N 19:45:03 10° E
Cosmos 2058 Rocket 4.0 19:37:38 10° NNE 19:41:26 29° E 19:45:14 10° SE
Cosmos 1110 Rocket 4.3 19:37:48 10° N 19:42:57 53° ENE 19:48:02 10° SSE
OTV 4 3.1 19:42:12 10° WSW 19:43:14 11° SW 19:44:15 10° SSW
ATLAS 5 CENTAUR R/B 2.2 19:44:43 10° SW 19:46:46 18° S 19:49:19 10° ESE
Cosmos 2233 Rocket 4.1 19:44:32 10° N 19:50:47 88° W 19:56:57 10° S
Cosmos 2098 Rocket 3.7 19:52:23 10° NNW 19:56:17 59° W 20:01:14 10° S
Cosmos 1606 Rocket 3.5 19:52:42 10° N 19:57:07 80° E 20:01:28 10° S
Okean 2 3.4 19:53:40 10° S 19:57:49 72° E 20:01:59 10° N
H-2A R/B 3.6 19:56:28 11° ESE 19:59:25 20° ENE 20:02:33 10° NNE
Cosmos 2278 Rocket 3.2 19:55:03 10° NNW 20:00:27 47° WSW 20:05:52 10° S
Cosmos 2285 Rocket 4.2 19:54:44 10° N 20:00:57 57° ENE 20:07:12 10° SSE
deb Chang Zheng 4 4.1 19:59:17 10° NNE 20:03:23 39° E 20:07:26 10° S
Fermi 4.0 19:59:34 10° WSW 20:03:35 52° S 20:06:57 14° ESE
CZ-2C R/B 2.2 20:04:32 15° E 20:05:11 17° ENE 20:06:47 10° NNE
Cosmos 1464 Rocket 4.2 19:59:30 10° N 20:05:29 51° E 20:11:29 10° SSE
Cosmos 1626 Rocket 4.1 20:02:10 10° SSE 20:06:19 40° E 20:10:27 10° NNE
CZ-3C R/B 3.3 19:52:13 10° WSW 20:07:37 32° S 20:10:48 15° SE
Cosmos 1666 3.4 20:05:51 10° NNE 20:09:28 36° E 20:12:17 15° SE
Lacrosse 4 Rocket 2.8 20:08:47 15° SE 20:09:55 17° ESE 20:12:33 10° ENE
Cosmos 2228 3.4 20:08:20 10° N 20:12:34 45° E 20:16:07 14° SSE
SL-16 R/B 4.4 20:10:32 10° SW 20:15:22 29° WNW 20:20:14 10° N
CZ-2D R/B 3.5 20:11:45 10° S 20:15:37 71° WSW 20:19:31 10° NNW
Cosmos 2034 Rocket 4.1 20:19:57 10° N 20:26:12 57° E 20:31:23 15° SSE
Cosmos 1743 4.4 20:27:08 10° NNW 20:30:35 33° W 20:34:02 10° SSW
Cosmos 1515 4.4 20:33:33 29° ESE 20:34:30 33° E 20:37:59 10° NNE
ISS 0.0 20:34:26 10° WNW 20:36:24 15° NW 20:38:23 10° N
Nimbus 7 Rocket 4.3 20:32:12 10° NNE 20:38:07 70° ESE 20:43:57 10° S
CZ-4B R/B 4.3 20:34:43 10° NE 20:39:15 31° E 20:40:38 27° SE
Cosmos 1461 2.8 20:35:46 10° NNW 20:39:56 69° ENE 20:41:33 34° SE
Abrixas rocket 2.2 20:37:38 10° NW 20:41:03 83° SW 20:42:03 43° SE
Atlas Centaur 2 2.9 20:34:14 10° W 20:41:15 83° N 20:49:12 12° E
Meteor 1-15 Rocket 4.3 20:36:15 10° N 20:41:53 81° W 20:46:55 14° S
ALOS 3.4 20:39:17 10° S 20:43:41 42° W 20:48:07 10° NNW
Cosmos 1302 Rocket 4.2 20:42:18 10° NNW 20:47:32 70° WSW 20:51:11 20° S
ATLAS 3B R/B 2.9 20:42:03 10° SSW 20:49:42 74° ESE 20:57:19 10° NNE
GEOS 3 Rocket 3.6 20:48:04 30° SE 20:50:45 74° ENE 20:55:59 10° NNW
Cosmos 1939 Rocket 2.9 20:50:38 39° SE 20:52:02 66° ENE 20:56:09 10° N
USA 186 4.3 20:51:39 10° SW 20:53:29 16° W 20:55:16 10° WNW
ERS-1 Rocket 3.4 20:57:09 20° S 21:00:32 60° WSW 21:05:30 10° NNW
CZ-4 SHROUD 3.8 21:01:33 45° NE 21:01:33 45° NE 21:04:06 10° N
SPOT 5 2.8 21:02:15 47° ESE 21:03:01 55° ENE 21:07:15 10° N
Cosmos 1943 3.3 21:00:12 10° SSW 21:05:51 79° WNW 21:11:33 10° NNE
Cosmos 1943 Rocket 4.3 21:06:32 10° NE 21:08:18 11° ENE 21:09:02 11° ENE
Cosmos 1346 Rocket 3.4 21:09:56 40° NE 21:09:56 40° NE 21:12:51 10° NNE
PSLV R/B 4.1 21:13:28 45° N 21:13:28 45° N 21:15:44 10° N
Envisat 2.9 21:11:37 44° SSE 21:13:17 89° E 21:18:23 10° NNW
Cosmos 1825 Rocket 3.4 21:15:30 59° S 21:16:19 86° E 21:20:46 10° N
Cosmos 407 Rocket 3.4 21:14:37 37° S 21:16:46 78° ESE 21:22:00 10° NNE
Delta 168 4.2 21:23:24 10° WSW 21:25:11 27° WSW 21:25:11 27° WSW
Cosmos 1812 Rocket 4.5 21:25:38 10° NNW 21:29:50 44° W 21:30:58 36° SW
Meteor 1-21 4.2 21:30:11 58° ESE 21:30:35 60° E 21:36:17 10° NNE
deb Centaur AC-2 4.5 21:25:45 10° W 21:30:50 86° N 21:32:02 58° E
USA 238 DEB 3.7 21:30:15 43° S 21:32:24 60° ESE 21:39:20 10° NE
USA 238 3.7 21:30:31 44° SSE 21:32:30 59° ESE 21:39:25 10° NE
H-2A R/B 3.9 21:33:36 19° SW 21:35:13 24° W 21:38:44 10° NW
ARGOS 3.4 21:37:09 52° ENE 21:37:09 52° ENE 21:42:24 10° N
Cosmos 1954 Rocket 4.0 21:37:45 63° ENE 21:37:45 63° ENE 21:42:33 10° NNE
MetOp-B 4.3 21:47:41 59° SW 21:48:18 65° WSW 21:53:37 10° NNW
Lacrosse 4 Rocket 3.5 21:45:01 10° WSW 21:48:23 25° WNW 21:51:47 10° N
USA 245 4.2 21:51:08 76° SSW 21:51:37 84° WSW 21:56:59 10° NNW
Milstar 3 Cent rocket 3.9 21:49:31 10° W 21:53:18 20° SW 21:53:18 20° SW
Cosmos 1992 Rocket 4.4 21:50:22 10° NNW 21:55:26 54° WSW 21:55:34 54° WSW
Cosmos 2369 Rocket 2.1 21:50:11 10° NNW 21:55:44 85° WNW 21:55:44 85° WNW
SeaSat 1 2.7 21:58:17 65° WNW 21:58:17 65° WNW 22:02:46 10° NNW
NOAA 11 4.2 22:02:15 74° N 22:02:15 74° N 22:07:11 10° N
Mugunghwa Rocket 4.4 21:59:13 10° WSW 22:03:53 49° SW 22:03:53 49° SW
Geosat 4.4 22:07:00 10° NNE 22:11:23 59° NNW 22:11:23 59° NNW
H-2A R/B 3.0 22:16:38 38° NNE 22:16:38 38° NNE 22:19:55 10° N
CZ-4C R/B 4.3 22:30:35 15° NE 22:30:35 15° NE 22:31:35 10° NE
Cosmos 1140 Rocket 4.4 22:27:53 46° NNW 22:27:53 46° NNW 22:31:44 10° N
COSMOS 2406 3.7 22:27:46 57° NNW 22:27:46 57° NNW 22:32:35 10° NNE
Cosmos 1607 4.1 22:29:44 68° NNW 22:29:44 68° NNW 22:35:29 10° NNE
Cosmos 2279 Rocket 4.3 22:24:35 10° NNW 22:30:28 62° WNW 22:30:28 62° WNW
Atlas Centaur 2 2.9 22:23:32 10° W 22:31:25 90° NNE 22:31:50 83° E
Terra 3.6 22:49:14 30° NNW 22:49:14 30° NNW 22:51:38 10° NNW
Cosmos 1943 Rocket 3.2 22:46:58 10° NNW 22:50:34 41° NNW 22:50:34 41° NNW
USA 234 3.4 22:53:50 67° NW 22:53:50 67° NW 22:59:25 10° NW
